Tracking 18980 objects as of 22-Feb-2018
HD Live streaming from Space Station
objects crossing your sky now

FENGYUN 1C DEB

Track FENGYUN 1C DEB now!
10-day predictions


NORAD ID: 30840
Int'l Code: 1999-025AWA
Perigee: 557.9 km
Apogee: 938.2 km
Inclination: 98.3 °
Period: 99.6 minutes
Semi major axis: 7119 km
RCS: 0.0055 m2 (small)
Launch date: May 10, 1999
Source: People's Republic of China (PRC)
Launch site: Taiyaun Space Center, China (TSC)

Note: This is SATELLITE DEBRIS
aabbcc
Your satellite tracking list
Your tracking list is empty




NASA's NSSDC Master Catalog

Two Line Element Set (TLE):
1 30840U 99025AWA 18052.12884942  .00000313  00000-0  67424-4 0  9998
2 30840  98.3460 114.7213 0267134 128.6182 233.9257 14.45338677578398
Source of the keplerian elements: AFSPC